When you browse on this site, cookies collect data to enhance your experience and personalize the content and advertising you see.
Visit our Privacy Policy to learn more. By continuing to use the site, you agree to this use of cookies and data.
  • In Deutschland
  • Länderverzeichnis
  • Für 7 Tage
  • Wassertemperatur
  • Satellitenkarten
  • Wetterkarte
  • Widgets
  • user-avatar
    Anmelden

    Stündliche Wetter Andora

    Heute, 25 April, Donnerstag

    Zeit Temperatur Niederschläge Wind Luftdruck Luftfeuchtigkeit
    00:00 0°C° 0 mm 5 m/S 615 mmHg 93%
    01:00 +1°C° 1.6 mm 5 m/S 615 mmHg 93%
    02:00 +1°C° 1.6 mm 5 m/S 615 mmHg 94%
    03:00 +1°C° 1.6 mm 5 m/S 615 mmHg 94%
    04:00 +1°C° 2.2 mm 5 m/S 615 mmHg 95%
    05:00 +1°C° 2.2 mm 4 m/S 615 mmHg 95%
    06:00 +3°C° 2.2 mm 4 m/S 615 mmHg 95%
    07:00 +3°C° 3.1 mm 4 m/S 616 mmHg 96%
    08:00 +3°C° 3.1 mm 3 m/S 616 mmHg 96%
    09:00 +3°C° 3.1 mm 3 m/S 616 mmHg 96%
    10:00 +3°C° 0.4 mm 4 m/S 617 mmHg 92%
    11:00 +4°C° 0.4 mm 4 m/S 617 mmHg 88%
    12:00 +3°C° 0.4 mm 5 m/S 617 mmHg 84%
    13:00 +3°C° 0.2 mm 5 m/S 617 mmHg 79%
    14:00 +4°C° 0.2 mm 6 m/S 617 mmHg 74%
    15:00 +4°C° 0.2 mm 6 m/S 618 mmHg 70%
    16:00 +3°C° 0.3 mm 5 m/S 617 mmHg 74%
    17:00 +3°C° 0.3 mm 4 m/S 617 mmHg 78%
    18:00 +3°C° 0.3 mm 2 m/S 617 mmHg 83%
    19:00 +1°C° 0.1 mm 2 m/S 617 mmHg 85%
    20:00 -1°C° 0.1 mm 2 m/S 617 mmHg 88%
    21:00 -3°C° 0.1 mm 2 m/S 617 mmHg 90%
    22:00 -4°C° 0 mm 2 m/S 618 mmHg 88%
    23:00 -4°C° 0 mm 2 m/S 618 mmHg 86%

    Morgen, 26 April, Freitag

    Zeit Temperatur Niederschläge Wind Luftdruck Luftfeuchtigkeit
    00:00 -4°C° 0 mm 2 m/S 618 mmHg 84%
    01:00 -4°C° 0 mm 2 m/S 618 mmHg 84%
    02:00 -2°C° 0 mm 1 m/S 619 mmHg 84%
    03:00 -2°C° 0 mm 1 m/S 619 mmHg 84%
    04:00 -1°C° 0 mm 1 m/S 620 mmHg 83%
    05:00 -1°C° 0 mm 1 m/S 621 mmHg 81%
    06:00 0°C° 0 mm 1 m/S 621 mmHg 79%
    07:00 +2°C° 0 mm 1 m/S 623 mmHg 72%
    08:00 +3°C° 0 mm 2 m/S 624 mmHg 64%
    09:00 +5°C° 0 mm 2 m/S 625 mmHg 57%
    10:00 +6°C° 0.1 mm 2 m/S 625 mmHg 59%
    11:00 +6°C° 0.1 mm 2 m/S 626 mmHg 62%
    12:00 +6°C° 0.1 mm 2 m/S 626 mmHg 64%
    13:00 +6°C° 0.3 mm 2 m/S 626 mmHg 68%
    14:00 +6°C° 0.3 mm 2 m/S 626 mmHg 72%
    15:00 +5°C° 0.3 mm 2 m/S 626 mmHg 76%
    16:00 +5°C° 0.1 mm 2 m/S 626 mmHg 80%
    17:00 +4°C° 0.1 mm 2 m/S 626 mmHg 83%
    18:00 +4°C° 0.1 mm 2 m/S 626 mmHg 87%
    19:00 +3°C° 0 mm 2 m/S 626 mmHg 89%
    20:00 +2°C° 0 mm 2 m/S 626 mmHg 91%
    21:00 -1°C° 0 mm 2 m/S 626 mmHg 93%
    22:00 -1°C° 0 mm 2 m/S 626 mmHg 93%
    23:00 -2°C° 0 mm 2 m/S 626 mmHg 92%

    übermorgen, 27 April, Samstag

    Zeit Temperatur Niederschläge Wind Luftdruck Luftfeuchtigkeit
    00:00 -3°C° 0 mm 2 m/S 626 mmHg 91%
    01:00 -3°C° 0 mm 2 m/S 625 mmHg 86%
    02:00 -3°C° 0 mm 2 m/S 625 mmHg 81%
    03:00 -3°C° 0 mm 2 m/S 625 mmHg 76%
    04:00 -3°C° 0 mm 2 m/S 626 mmHg 73%
    05:00 -2°C° 0 mm 2 m/S 626 mmHg 70%
    06:00 -1°C° 0 mm 2 m/S 626 mmHg 68%
    07:00 +2°C° 0 mm 2 m/S 627 mmHg 68%
    08:00 +5°C° 0 mm 2 m/S 628 mmHg 68%
    09:00 +8°C° 0 mm 2 m/S 629 mmHg 68%
    10:00 +8°C° 0 mm 2 m/S 630 mmHg 67%
    11:00 +9°C° 0 mm 2 m/S 630 mmHg 66%
    12:00 +9°C° 0 mm 2 m/S 630 mmHg 65%
    13:00 +9°C° 0 mm 2 m/S 630 mmHg 65%
    14:00 +9°C° 0 mm 2 m/S 629 mmHg 66%
    15:00 +9°C° 0 mm 2 m/S 629 mmHg 66%
    16:00 +8°C° 0 mm 2 m/S 629 mmHg 72%
    17:00 +7°C° 0 mm 2 m/S 628 mmHg 77%
    18:00 +6°C° 0 mm 2 m/S 628 mmHg 82%
    19:00 +5°C° 0 mm 2 m/S 628 mmHg 86%
    20:00 +4°C° 0 mm 2 m/S 628 mmHg 89%
    21:00 +2°C° 0 mm 2 m/S 628 mmHg 93%
    22:00 +1°C° 0 mm 2 m/S 627 mmHg 92%
    23:00 -1°C° 0 mm 2 m/S 627 mmHg 91%

    28 April, Sonntag

    Zeit Temperatur Niederschläge Wind Luftdruck Luftfeuchtigkeit
    00:00 -1°C° 0 mm 2 m/S 626 mmHg 91%
    01:00 -2°C° 0 mm 2 m/S 626 mmHg 89%
    02:00 -2°C° 0 mm 2 m/S 626 mmHg 88%
    03:00 -3°C° 0 mm 2 m/S 625 mmHg 86%
    04:00 -2°C° 0 mm 2 m/S 625 mmHg 83%
    05:00 -2°C° 0 mm 2 m/S 625 mmHg 80%
    06:00 -1°C° 0 mm 2 m/S 626 mmHg 77%
    07:00 +2°C° 0 mm 2 m/S 627 mmHg 70%
    08:00 +5°C° 0 mm 2 m/S 628 mmHg 62%
    09:00 +7°C° 0 mm 2 m/S 628 mmHg 55%
    10:00 +8°C° 0 mm 2 m/S 628 mmHg 53%
    11:00 +9°C° 0 mm 2 m/S 629 mmHg 51%
    12:00 +10°C° 0 mm 2 m/S 629 mmHg 48%
    13:00 +10°C° 0 mm 3 m/S 628 mmHg 50%
    14:00 +10°C° 0 mm 3 m/S 628 mmHg 51%
    15:00 +10°C° 0 mm 3 m/S 627 mmHg 53%
    16:00 +9°C° 0 mm 2 m/S 627 mmHg 60%
    17:00 +7°C° 0 mm 2 m/S 626 mmHg 68%
    18:00 +6°C° 0 mm 2 m/S 625 mmHg 75%
    19:00 +4°C° 0 mm 2 m/S 625 mmHg 81%
    20:00 +2°C° 0 mm 2 m/S 625 mmHg 86%
    21:00 +1°C° 0 mm 2 m/S 624 mmHg 91%
    22:00 -1°C° 0 mm 2 m/S 624 mmHg 89%
    23:00 -1°C° 0 mm 2 m/S 624 mmHg 86%

    29 April, Montag

    Zeit Temperatur Niederschläge Wind Luftdruck Luftfeuchtigkeit
    00:00 -1°C° 0 mm 2 m/S 624 mmHg 83%
    01:00 -1°C° 0 mm 2 m/S 623 mmHg 82%
    02:00 -1°C° 0 mm 2 m/S 623 mmHg 81%
    03:00 -2°C° 0 mm 2 m/S 623 mmHg 80%
    04:00 +1°C° 0 mm 1 m/S 623 mmHg 77%
    05:00 +2°C° 0 mm 1 m/S 623 mmHg 74%
    06:00 +2°C° 0 mm 1 m/S 624 mmHg 71%
    07:00 +5°C° 0 mm 1 m/S 624 mmHg 63%
    08:00 +7°C° 0 mm 1 m/S 625 mmHg 55%
    09:00 +10°C° 0 mm 1 m/S 626 mmHg 47%
    10:00 +10°C° 0 mm 2 m/S 626 mmHg 46%
    11:00 +12°C° 0 mm 2 m/S 626 mmHg 44%
    12:00 +13°C° 0 mm 2 m/S 626 mmHg 43%
    13:00 +13°C° 0 mm 2 m/S 626 mmHg 46%
    14:00 +13°C° 0 mm 2 m/S 625 mmHg 49%
    15:00 +12°C° 0 mm 2 m/S 625 mmHg 52%
    16:00 +11°C° 0 mm 1 m/S 624 mmHg 60%
    17:00 +10°C° 0 mm 1 m/S 624 mmHg 68%
    18:00 +8°C° 0 mm 1 m/S 623 mmHg 76%
    19:00 +7°C° 0 mm 1 m/S 623 mmHg 82%
    20:00 +5°C° 0 mm 0 m/S 623 mmHg 87%
    21:00 +4°C° 0 mm 0 m/S 623 mmHg 93%
    22:00 +4°C° 0 mm 0 m/S 623 mmHg 94%
    23:00 +5°C° 0 mm 1 m/S 623 mmHg 95%

    30 April, Dienstag

    Zeit Temperatur Niederschläge Wind Luftdruck Luftfeuchtigkeit
    00:00 +5°C° 0 mm 1 m/S 623 mmHg 96%
    01:00 +5°C° 0.1 mm 1 m/S 623 mmHg 96%
    02:00 +5°C° 0.1 mm 1 m/S 623 mmHg 97%
    03:00 +6°C° 0.1 mm 1 m/S 623 mmHg 97%
    04:00 +6°C° 0 mm 1 m/S 623 mmHg 96%
    05:00 +6°C° 0 mm 1 m/S 623 mmHg 95%
    06:00 +5°C° 0 mm 0 m/S 623 mmHg 93%
    07:00 +8°C° 0 mm 1 m/S 623 mmHg 82%
    08:00 +9°C° 0 mm 1 m/S 624 mmHg 71%
    09:00 +11°C° 0 mm 1 m/S 625 mmHg 60%
    10:00 +12°C° 0 mm 1 m/S 625 mmHg 55%
    11:00 +13°C° 0 mm 2 m/S 625 mmHg 50%
    12:00 +14°C° 0 mm 2 m/S 625 mmHg 44%
    13:00 +14°C° 0.1 mm 2 m/S 625 mmHg 46%
    14:00 +14°C° 0.1 mm 2 m/S 624 mmHg 47%
    15:00 +14°C° 0.1 mm 2 m/S 624 mmHg 48%
    16:00 +13°C° 0.1 mm 1 m/S 623 mmHg 55%
    17:00 +11°C° 0.1 mm 1 m/S 623 mmHg 61%
    18:00 +10°C° 0.1 mm 1 m/S 622 mmHg 68%
    19:00 +9°C° 0.1 mm 1 m/S 622 mmHg 73%
    20:00 +7°C° 0.1 mm 1 m/S 622 mmHg 79%
    21:00 +6°C° 0.1 mm 1 m/S 622 mmHg 85%
    22:00 +6°C° 0 mm 1 m/S 621 mmHg 85%
    23:00 +6°C° 0 mm 1 m/S 621 mmHg 86%
    Mehr zeigen